Vorticity
nan nan nan nan nan nan nan nan nan nan nan nan nan nan nan nan nan nan nan nan nan nan nan nan nan nan nan nan nan nan nan nan nan
nan 7 8 7 5 5 6 8 9 8 6 5 4 5 4 3 4 8 8 7 7 4 4 4 4 4 4 4 4 5 5 5 nan
nan 9 8 7 7 6 6 7 8 7 5 5 5 6 4 2 4 8 11 10 5 4 5 5 4 4 4 5 5 4 4 4 nan
nan 7 9 8 8 8 7 8 8 7 5 5 5 6 4 3 5 9 12 11 5 4 5 5 4 4 4 4 4 4 4 4 nan
nan 14 12 12 9 7 8 7 8 7 7 6 6 7 6 4 4 8 13 13 4 4 4 5 5 4 5 5 5 5 4 4 nan
nan 13 5 8 13 13 7 7 8 9 11 10 7 5 5 6 6 9 13 12 6 5 5 5 5 5 5 5 5 5 5 5 nan
nan 10 9 9 10 15 14 11 9 6 8 11 10 7 7 6 6 9 14 10 5 4 4 6 7 5 5 5 5 5 5 5 nan
nan 9 12 13 12 10 13 13 12 9 5 7 9 8 6 6 8 13 15 8 6 5 4 4 6 7 5 6 5 5 5 5 nan
nan 7 7 9 11 9 8 9 10 11 8 7 6 7 5 4 7 16 17 9 7 7 5 4 4 7 7 5 5 6 7 6 nan
nan 8 8 7 7 9 10 7 9 10 10 9 8 6 7 6 4 14 16 10 7 7 7 5 5 5 6 7 7 6 6 6 nan
nan 7 8 8 7 7 9 9 8 9 10 9 9 7 6 8 5 8 16 12 9 9 7 6 6 7 6 6 8 8 7 6 nan
nan 8 8 8 7 7 8 10 9 9 9 11 10 10 8 8 6 5 10 14 13 10 8 7 7 8 7 6 5 8 9 8 nan
nan 8 7 7 8 9 9 8 9 9 8 10 11 11 10 9 8 7 5 9 11 14 12 9 8 8 9 7 5 5 9 10 nan
nan 11 8 8 8 8 7 7 10 9 8 8 9 9 11 11 9 9 9 8 8 13 15 12 11 10 10 8 6 5 6 9 nan
nan 11 8 10 9 8 7 8 8 9 8 8 9 11 11 9 9 8 8 9 8 9 12 14 15 15 11 12 9 7 6 7 nan
nan 9 9 9 8 7 8 10 9 8 8 8 11 12 12 10 9 12 12 9 12 8 12 12 13 21 19 19 20 20 15 10 nan
nan 8 7 9 10 10 10 9 12 9 10 7 7 9 11 10 12 13 10 10 19 16 6 7 14 12 11 11 16 20 18 14 nan
nan 7 9 10 11 13 11 9 9 11 10 11 7 8 10 6 5 9 6 10 12 9 6 10 10 10 10 5 4 7 11 10 nan
nan 7 10 9 10 13 12 12 11 12 8 11 12 11 9 9 8 6 9 7 6 7 4 8 7 7 8 5 4 8 9 8 nan
nan nan nan nan nan nan nan nan nan nan nan nan nan nan nan nan nan nan nan nan nan nan nan nan nan nan nan nan nan nan nan nan nan
CAPE
888 1148 1105 1191 1446 1061 1043 1136 1191 1379 937 238 67 4 5 3 0 0 0 0 0 0 0 4 0 2 1 1 2 2 0 2 2
848 1271 1362 1156 1201 1210 1062 911 1215 1362 1001 279 274 280 132 0 0 0 0 0 14 0 0 0 0 1 1 3 1 4 0 0 0
726 1086 1037 1345 1006 1189 1184 1065 1002 1179 1037 620 818 531 148 2 0 0 0 46 37 0 0 0 1 2 1 0 0 0 0 0 0
8 500 1035 836 1062 1346 1394 1480 1214 1113 1048 1054 894 548 219 4 0 0 0 331 45 0 1 2 3 3 2 2 2 1 1 0 0
0 20 659 918 849 1042 1228 1377 1401 1076 897 909 714 526 219 0 0 0 0 531 196 9 16 6 2 5 3 3 2 2 1 0 0
0 72 101 124 738 924 1057 1087 1074 1000 559 562 475 384 137 0 0 0 0 610 287 124 315 99 17 8 8 5 4 4 3 2 0
0 0 0 0 330 582 914 964 869 643 343 171 259 226 162 18 0 0 185 779 315 152 346 888 372 74 24 35 19 6 5 5 3
0 0 0 0 235 124 388 462 540 441 292 329 214 177 180 81 39 0 122 863 378 145 279 783 778 551 300 93 70 31 5 6 5
0 0 0 0 0 118 412 265 353 414 420 430 384 230 164 124 59 0 73 489 677 190 62 533 712 708 632 408 285 475 413 138 144
0 0 0 0 0 0 66 247 221 361 368 458 582 348 242 146 64 0 1 101 461 553 164 92 419 550 639 761 705 711 704 551 531
0 0 0 0 0 0 0 127 201 173 346 319 482 452 347 247 150 6 0 21 242 560 500 87 75 306 517 557 955 880 728 708 683
0 0 0 0 0 0 0 0 157 137 88 232 283 382 377 421 316 265 0 1 94 320 697 621 571 590 265 336 725 991 1010 927 891
0 0 0 0 0 0 0 0 8 137 102 71 286 319 424 427 382 398 261 0 8 48 380 642 784 695 390 277 316 849 947 971 944
0 0 0 0 0 0 0 0 0 63 113 119 148 403 283 260 407 300 234 182 0 0 49 160 173 270 740 511 606 790 950 905 863
0 0 0 0 0 0 0 0 0 29 98 206 146 211 266 260 310 329 298 243 238 178 151 6 0 27 324 566 372 369 674 702 695
0 0 0 0 0 0 17 14 9 18 125 130 128 134 217 214 271 330 318 118 186 193 120 37 18 40 12 82 166 290 226 121 63
1 0 0 0 0 0 3 31 62 41 109 101 154 109 161 5 22 15 5 67 19 95 6 37 6 0 56 1 1 35 77 36 18
1 0 1 1 0 1 0 19 90 31 83 109 126 88 54 9 2 4 2 1 2 5 3 13 2 0 0 0 0 0 12 5 0
0 0 0 2 0 2 1 47 44 71 81 83 215 132 15 1 16 7 3 0 6 0 0 0 0 0 0 0 0 0 0 1 3
0 0 0 0 0 0 8 52 64 90 83 45 203 76 0 0 0 0 11 12 9 0 0 0 0 0 0 0 0 0 0 0 0